When you browse on this site, cookies collect data to enhance your experience and personalize the content and advertising you see.
Visit our Privacy Policy to learn more. By continuing to use the site, you agree to this use of cookies and data.

Hourly Weather Sololá

Today, 6 July, Monday

Time Temperature Precipitation Wind Pressure Humidity
00:00 +14°C° 0.2 mm 1 mps 594 mmHg 93%
01:00 +14°C° 0.3 mm 1 mps 593 mmHg 92%
02:00 +14°C° 0.3 mm 1 mps 593 mmHg 92%
03:00 +13°C° 0.3 mm 1 mps 592 mmHg 92%
04:00 +14°C° 0.2 mm 1 mps 593 mmHg 92%
05:00 +14°C° 0.2 mm 1 mps 593 mmHg 92%
06:00 +14°C° 0.2 mm 1 mps 594 mmHg 91%
07:00 +16°C° 0.1 mm 1 mps 595 mmHg 86%
08:00 +19°C° 0.1 mm 1 mps 595 mmHg 81%
09:00 +20°C° 0.1 mm 1 mps 596 mmHg 76%
10:00 +21°C° 1.5 mm 1 mps 596 mmHg 78%
11:00 +20°C° 1.5 mm 2 mps 596 mmHg 81%
12:00 +20°C° 1.5 mm 2 mps 596 mmHg 84%
13:00 +19°C° 2.2 mm 2 mps 596 mmHg 87%
14:00 +18°C° 2.2 mm 2 mps 595 mmHg 90%
15:00 +17°C° 2.2 mm 2 mps 594 mmHg 93%
16:00 +18°C° 1 mm 1 mps 594 mmHg 93%
17:00 +18°C° 1 mm 1 mps 594 mmHg 94%
18:00 +16°C° 1 mm 1 mps 594 mmHg 94%
19:00 +15°C° 0 mm 1 mps 594 mmHg 93%
20:00 +14°C° 0 mm 1 mps 594 mmHg 91%
21:00 +13°C° 0 mm 1 mps 594 mmHg 90%
22:00 +13°C° 0 mm 1 mps 594 mmHg 86%
23:00 +13°C° 0 mm 1 mps 594 mmHg 81%

Tomorrow, 7 July, Tuesday

Time Temperature Precipitation Wind Pressure Humidity
00:00 +12°C° 0 mm 1 mps 594 mmHg 77%
01:00 +12°C° 0 mm 1 mps 593 mmHg 74%
02:00 +12°C° 0 mm 1 mps 593 mmHg 71%
03:00 +12°C° 0 mm 2 mps 593 mmHg 68%
04:00 +12°C° 0 mm 2 mps 593 mmHg 71%
05:00 +12°C° 0 mm 1 mps 593 mmHg 73%
06:00 +12°C° 0 mm 1 mps 593 mmHg 75%
07:00 +15°C° 0 mm 1 mps 595 mmHg 69%
08:00 +18°C° 0 mm 1 mps 596 mmHg 63%
09:00 +21°C° 0 mm 1 mps 598 mmHg 57%
10:00 +22°C° 0 mm 1 mps 598 mmHg 55%
11:00 +23°C° 0 mm 2 mps 598 mmHg 52%
12:00 +24°C° 0 mm 2 mps 598 mmHg 50%
13:00 +23°C° 0.2 mm 2 mps 597 mmHg 54%
14:00 +23°C° 0.2 mm 2 mps 597 mmHg 57%
15:00 +21°C° 0.2 mm 2 mps 596 mmHg 60%
16:00 +20°C° 0.1 mm 2 mps 596 mmHg 70%
17:00 +20°C° 0.1 mm 1 mps 595 mmHg 79%
18:00 +19°C° 0.1 mm 1 mps 595 mmHg 88%
19:00 +16°C° 0 mm 1 mps 594 mmHg 91%
20:00 +15°C° 0 mm 1 mps 594 mmHg 93%
21:00 +14°C° 0 mm 1 mps 594 mmHg 95%
22:00 +14°C° 0 mm 1 mps 594 mmHg 94%
23:00 +13°C° 0 mm 1 mps 594 mmHg 93%

Day after tomorrow, 8 July, Wednesday

Time Temperature Precipitation Wind Pressure Humidity
00:00 +13°C° 0 mm 2 mps 594 mmHg 92%
01:00 +13°C° 0 mm 2 mps 593 mmHg 91%
02:00 +13°C° 0 mm 2 mps 593 mmHg 90%
03:00 +13°C° 0 mm 2 mps 593 mmHg 89%
04:00 +13°C° 0 mm 2 mps 593 mmHg 87%
05:00 +13°C° 0 mm 2 mps 593 mmHg 84%
06:00 +13°C° 0 mm 2 mps 593 mmHg 82%
07:00 +15°C° 0 mm 1 mps 594 mmHg 74%
08:00 +19°C° 0 mm 1 mps 596 mmHg 65%
09:00 +22°C° 0 mm 1 mps 597 mmHg 56%
10:00 +23°C° 0 mm 1 mps 597 mmHg 55%
11:00 +23°C° 0 mm 2 mps 597 mmHg 54%
12:00 +24°C° 0 mm 2 mps 597 mmHg 53%
13:00 +23°C° 0.4 mm 2 mps 597 mmHg 59%
14:00 +23°C° 0.4 mm 2 mps 596 mmHg 65%
15:00 +21°C° 0.4 mm 2 mps 595 mmHg 70%
16:00 +20°C° 0.3 mm 2 mps 595 mmHg 75%
17:00 +20°C° 0.3 mm 1 mps 594 mmHg 80%
18:00 +19°C° 0.3 mm 1 mps 594 mmHg 85%
19:00 +16°C° 0.2 mm 1 mps 594 mmHg 86%
20:00 +15°C° 0.2 mm 1 mps 593 mmHg 86%
21:00 +13°C° 0.2 mm 2 mps 593 mmHg 87%
22:00 +13°C° 0 mm 2 mps 593 mmHg 86%
23:00 +13°C° 0 mm 2 mps 593 mmHg 86%

9 July, Thursday

Time Temperature Precipitation Wind Pressure Humidity
00:00 +13°C° 0 mm 2 mps 593 mmHg 86%
01:00 +13°C° 0 mm 2 mps 592 mmHg 86%
02:00 +13°C° 0 mm 2 mps 592 mmHg 87%
03:00 +13°C° 0 mm 2 mps 592 mmHg 88%
04:00 +13°C° 0 mm 2 mps 592 mmHg 86%
05:00 +13°C° 0 mm 2 mps 592 mmHg 84%
06:00 +13°C° 0 mm 2 mps 592 mmHg 82%
07:00 +15°C° 0 mm 1 mps 594 mmHg 72%
08:00 +19°C° 0 mm 1 mps 595 mmHg 61%
09:00 +22°C° 0 mm 1 mps 597 mmHg 51%
10:00 +23°C° 0 mm 1 mps 597 mmHg 50%
11:00 +24°C° 0 mm 2 mps 597 mmHg 48%
12:00 +25°C° 0 mm 2 mps 597 mmHg 46%
13:00 +24°C° 0.1 mm 2 mps 596 mmHg 50%
14:00 +24°C° 0.1 mm 2 mps 596 mmHg 54%
15:00 +23°C° 0.1 mm 2 mps 595 mmHg 59%
16:00 +21°C° 0.2 mm 2 mps 595 mmHg 67%
17:00 +20°C° 0.2 mm 1 mps 594 mmHg 76%
18:00 +19°C° 0.2 mm 1 mps 594 mmHg 85%
19:00 +18°C° 0.2 mm 1 mps 594 mmHg 88%
20:00 +15°C° 0.2 mm 1 mps 593 mmHg 91%
21:00 +14°C° 0.2 mm 2 mps 593 mmHg 95%
22:00 +14°C° 0 mm 2 mps 593 mmHg 94%
23:00 +14°C° 0 mm 2 mps 593 mmHg 94%

10 July, Friday

Time Temperature Precipitation Wind Pressure Humidity
00:00 +13°C° 0 mm 2 mps 593 mmHg 94%
01:00 +13°C° 0 mm 2 mps 593 mmHg 92%
02:00 +13°C° 0 mm 2 mps 592 mmHg 91%
03:00 +12°C° 0 mm 2 mps 592 mmHg 89%
04:00 +12°C° 0 mm 2 mps 592 mmHg 87%
05:00 +13°C° 0 mm 2 mps 592 mmHg 84%
06:00 +13°C° 0 mm 2 mps 593 mmHg 82%
07:00 +15°C° 0 mm 2 mps 594 mmHg 73%
08:00 +17°C° 0 mm 2 mps 595 mmHg 63%
09:00 +21°C° 0 mm 1 mps 597 mmHg 54%
10:00 +21°C° 0 mm 2 mps 597 mmHg 54%
11:00 +21°C° 0 mm 2 mps 597 mmHg 55%
12:00 +23°C° 0 mm 2 mps 597 mmHg 55%
13:00 +21°C° 1 mm 2 mps 596 mmHg 63%
14:00 +21°C° 1 mm 2 mps 596 mmHg 71%
15:00 +20°C° 1 mm 2 mps 595 mmHg 79%
16:00 +20°C° 1.4 mm 1 mps 595 mmHg 84%
17:00 +19°C° 1.4 mm 1 mps 594 mmHg 89%
18:00 +18°C° 1.4 mm 1 mps 594 mmHg 94%
19:00 +16°C° 0.6 mm 1 mps 594 mmHg 95%
20:00 +15°C° 0.6 mm 1 mps 594 mmHg 95%
21:00 +14°C° 0.6 mm 1 mps 594 mmHg 96%
22:00 +14°C° 0.2 mm 1 mps 594 mmHg 96%
23:00 +14°C° 0.2 mm 1 mps 594 mmHg 96%

11 July, Saturday

Time Temperature Precipitation Wind Pressure Humidity
00:00 +14°C° 0.2 mm 1 mps 594 mmHg 96%
01:00 +14°C° 0.1 mm 1 mps 594 mmHg 95%
02:00 +14°C° 0.1 mm 2 mps 594 mmHg 95%
03:00 +13°C° 0.1 mm 2 mps 593 mmHg 94%
04:00 +13°C° 0 mm 2 mps 593 mmHg 92%
05:00 +13°C° 0 mm 2 mps 593 mmHg 91%
06:00 +13°C° 0 mm 2 mps 593 mmHg 89%
07:00 +15°C° 0 mm 2 mps 594 mmHg 78%
08:00 +17°C° 0 mm 2 mps 596 mmHg 68%
09:00 +20°C° 0 mm 2 mps 597 mmHg 57%
10:00 +21°C° 0 mm 2 mps 597 mmHg 54%
11:00 +22°C° 0 mm 3 mps 597 mmHg 51%
12:00 +24°C° 0 mm 3 mps 598 mmHg 48%
13:00 +22°C° 0.3 mm 3 mps 597 mmHg 52%
14:00 +21°C° 0.3 mm 3 mps 596 mmHg 57%
15:00 +21°C° 0.3 mm 3 mps 596 mmHg 62%
16:00 +19°C° 0.6 mm 2 mps 595 mmHg 71%
17:00 +19°C° 0.6 mm 1 mps 595 mmHg 81%
18:00 +18°C° 0.6 mm 1 mps 594 mmHg 91%
19:00 +15°C° 0.4 mm 1 mps 594 mmHg 92%
20:00 +14°C° 0.4 mm 1 mps 594 mmHg 93%
21:00 +13°C° 0.4 mm 2 mps 594 mmHg 94%
22:00 +13°C° 0.1 mm 2 mps 594 mmHg 93%
23:00 +12°C° 0.1 mm 2 mps 594 mmHg 93%
Show more